This is the latest recevied weather packets stored in our database for station/object W9QL-13. If no packets are shown the sender has not sent any weather packets the latest 1 day(s).
| Time | Temp. | Humidity | Pressure | Rain* | Wind** | Luminosity | Snow |
|---|---|---|---|---|---|---|---|
| 1777969258 | 11.67° C | 49% | 1003 hPa | 0 mm | 2.24 m/s, 18° | - | - |
| 1777968958 | 11.67° C | 49% | 1003.1 hPa | 0 mm | 2.68 m/s, 29° | - | - |
| 1777968660 | 11.67° C | 49% | 1002.9 hPa | 0 mm | 2.24 m/s, 355° | - | - |
| 1777968358 | 11.67° C | 49% | 1002.7 hPa | 0 mm | 0.89 m/s, 347° | - | - |
| 1777968058 | 12.22° C | 48% | 1002.4 hPa | 0 mm | 0.89 m/s, 354° | - | - |
| 1777967729 | 12.22° C | 48% | 1002.5 hPa | 0 mm | 1.34 m/s, 22° | - | - |
| 1777967428 | 12.22° C | 48% | 1002.3 hPa | 0 mm | 2.24 m/s, 18° | - | - |
| 1777966798 | 12.78° C | 47% | 1002.1 hPa | 0 mm | 0.89 m/s, 41° | - | - |
| 1777966498 | 12.78° C | 46% | 1002.1 hPa | 0 mm | 2.68 m/s, 8° | - | - |
| 1777966198 | 12.78° C | 46% | 1002.2 hPa | 0 mm | 3.58 m/s, 15° | - | - |
| 1777965898 | 13.33° C | 46% | 1001.7 hPa | 0 mm | 0.89 m/s, 43° | - | - |
| 1777965598 | 13.33° C | 45% | 1001.6 hPa | 0 mm | 3.13 m/s, 28° | - | - |
| 1777965301 | 13.33° C | 44% | 1001.6 hPa | 0 mm | 2.68 m/s, 25° | - | - |
| 1777964998 | 13.33° C | 44% | 1001.8 hPa | 0 mm | 2.68 m/s, 21° | - | - |
| 1777964698 | 13.33° C | 44% | 1001.6 hPa | 0 mm | 3.13 m/s, 35° | - | - |
| 1777964398 | 13.89° C | 43% | 1001.4 hPa | 0 mm | 0.89 m/s, 356° | - | - |
| 1777964098 | 13.89° C | 43% | 1001.3 hPa | 0 mm | 1.34 m/s, 354° | - | - |
| 1777963798 | 13.89° C | 42% | 1001.3 hPa | 0 mm | 0.89 m/s, 331° | - | - |
| 1777963468 | 14.44° C | 42% | 1001.1 hPa | 0 mm | 2.68 m/s, 350° | - | - |
| 1777963168 | 14.44° C | 41% | 1001.2 hPa | 0 mm | 1.34 m/s, 346° | - | - |
| 1777962868 | 14.44° C | 41% | 1001.2 hPa | 0 mm | 0.45 m/s, 324° | - | - |
| 1777962568 | 14.44° C | 40% | 1001.2 hPa | 0 mm | 1.34 m/s, 340° | - | - |
| 1777962268 | 14.44° C | 40% | 1001.1 hPa | 0 mm | 2.24 m/s, 343° | - | - |
| 1777961938 | 15° C | 39% | 1000.9 hPa | 0 mm | 0.89 m/s, 1° | - | - |
| 1777961638 | 15° C | 38% | 1000.8 hPa | 0 mm | 2.24 m/s, 8° | - | - |
* Rain latest hour (hover to see other rain measurements)
** Current wind speed in m/s (hover to see current wind gust speed)